Amateur Radio Satellites - All Passes

Search period start: 22 May 2013 03:03
Search period end: 23 May 2013 03:03
Location: Stonelick Lake State Park, 39.2170°N, 84.0850°W

Satellite Date Start Highest point End Downlink Frequencies (MHz)
Time Altitude Azimuth
AO-Echo 22 May 03:08:35 03:09:55 11° 90° (E) 03:11:16 ?
RS-15 22 May 03:09:44 03:20:47 76° 243° (WSW) 03:31:36 29.354 - 29.394 USB, Beacon 29.352 USB
Oscar 16 22 May 03:33:53 03:39:05 84° 285° (WNW) 03:44:14 437.025 USB, Beacon 2401.1428
AO-27 22 May 03:40:40 03:45:55 82° 103° (ESE) 03:51:09 436.795 MHz FM
KITSAT 1 22 May 03:42:46 03:44:55 11° 340° (NNW) 03:47:05 435.175 FM
ITAMSAT 1 22 May 03:47:34 03:52:49 88° 283° (WNW) 03:58:03 435.822 SSB
Gurwin Techsat 1B 22 May 04:01:41 04:04:39 15° 91° (E) 04:07:35 435.225 FM
ISS 22 May 04:06:26 04:09:44 75° 323° (NW) 04:13:04 145.800 FM
MaSat-1 22 May 04:18:29 04:24:03 26° 304° (WNW) 04:28:50 437.345 MHz
Uribyol 2 22 May 04:29:16 04:33:59 35° 291° (WNW) 04:38:41 436.500 FM
Oscar 19 22 May 04:34:37 04:38:55 27° 293° (WNW) 04:43:11 437.125 CW, 437.150 USB
Uosat F 22 May 04:36:36 04:41:18 39° 98° (E) 04:45:59 435.120 FM
AO-Echo 22 May 04:44:26 04:49:09 70° 285° (WNW) 04:53:58 ?
Oscar 16 22 May 05:16:53 05:17:36 10° 301° (WNW) 05:18:19 437.025 USB, Beacon 2401.1428
TMSAT-1 22 May 05:18:27 05:23:40 55° 100° (E) 05:28:51 436.925 FM
AO-27 22 May 05:22:32 05:24:44 13° 300° (WNW) 05:26:56 436.795 MHz FM
RS-15 22 May 05:25:45 05:31:03 15° 263° (W) 05:36:21 29.354 - 29.394 USB, Beacon 29.352 USB
ITAMSAT 1 22 May 05:30:02 05:31:31 11° 301° (WNW) 05:33:00 435.822 SSB
Gurwin Techsat 1B 22 May 05:39:47 05:45:03 64° 287° (WNW) 05:50:17 435.225 FM
ISS 22 May 05:44:47 05:46:55 16° 341° (NNW) 05:49:04 145.800 FM
AO-7 22 May 06:09:58 06:18:01 48° 101° (E) 06:25:59 29.400 - 29.500 MHz
Uosat F 22 May 06:15:56 06:19:52 24° 294° (WNW) 06:23:48 435.120 FM
STRAND 1 22 May 06:39:01 06:43:47 42° 70° (ENE) 06:48:35 ?
Sapphire 22 May 06:56:46 06:57:37 10° 101° (ESE) 06:58:28 437.095 MHz 1200 baud AX-25 AFSK
Saudisat 1A 22 May 06:57:04 07:01:38 81° 302° (WNW) 07:06:16 436.775 MHz
TMSAT-1 22 May 06:59:32 07:03:09 19° 296° (WNW) 07:06:46 436.925 FM
KITSAT 1 22 May 07:37:37 07:44:12 26° 42° (NE) 07:50:45 435.175 FM
JAS-1B 22 May 07:57:24 07:58:43 11° 87° (E) 08:00:02 435.800 - 435.900 CW/SSB
PCSat 22 May 08:02:07 08:07:18 49° 112° (ESE) 08:12:30 145.825 MHz
AO-7 22 May 08:03:05 08:10:34 38° 299° (WNW) 08:18:03 29.400 - 29.500 MHz
Hamsat 22 May 08:14:58 08:19:04 40° 98° (E) 08:23:11 145.90 MHz
STRAND 1 22 May 08:19:20 08:23:09 21° 266° (W) 08:26:59 ?
SO-50 22 May 08:20:26 08:22:01 12° 107° (ESE) 08:23:36 436.795 FM
Sapphire 22 May 08:34:47 08:40:11 89° 117° (ESE) 08:45:38 437.095 MHz 1200 baud AX-25 AFSK
Saudisat 1A 22 May 08:40:11 08:42:05 12° 321° (NW) 08:44:00 436.775 MHz
ISS 22 May 09:00:09 09:02:34 18° 22° (NNE) 09:04:58 145.800 FM
SO-67 22 May 09:20:21 09:23:56 81° 102° (ESE) 09:27:31 435.3500 MHz FM
KITSAT 1 22 May 09:32:22 09:40:31 82° 243° (WSW) 09:48:38 435.175 FM
Oscar 10/S400 22 May 09:35:11 11:54:44 29° 271° (W) 18:54:29 145.825 - 145.975 CW/USB, Beacon 145.810 USB
JAS-1B 22 May 09:44:18 09:50:23 80° 286° (WNW) 09:56:01 435.800 - 435.900 CW/SSB
PCSat 22 May 09:46:35 09:50:58 25° 310° (NW) 09:55:23 145.825 MHz
Hamsat 22 May 09:51:56 09:54:50 18° 293° (WNW) 09:57:45 145.90 MHz
SO-50 22 May 09:57:13 10:02:02 77° 302° (WNW) 10:06:47 436.795 FM
Oscar 11 22 May 10:14:02 10:14:58 11° 90° (E) 10:15:55 145.825 FM, Beacon 2401.500 USB
Sapphire 22 May 10:21:16 10:24:23 15° 317° (NW) 10:27:31 437.095 MHz 1200 baud AX-25 AFSK
ISS 22 May 10:36:16 10:39:38 82° 219° (SW) 10:43:00 145.800 FM
HO-68 22 May 10:42:19 10:49:12 48° 100° (E) 10:56:02 435.675 MHz FM
JAS-2 22 May 11:19:40 11:26:36 71° 101° (ESE) 11:32:38 435.800 - 435.900 CW/SSB, 435.910 FM
UOSAT-12 22 May 11:24:02 11:26:51 16° 109° (ESE) 11:29:41 437.025 FM, 437.400 FM
MaSat-1 22 May 11:24:05 11:24:37 10° 47° (NE) 11:25:09 437.345 MHz
KITSAT 1 22 May 11:30:37 11:34:39 15° 260° (W) 11:38:41 435.175 FM
OPAL 22 May 11:38:13 11:42:54 39° 100° (E) 11:47:31 ?
JAS-1B 22 May 11:38:58 11:39:49 10° 307° (NW) 11:40:40 435.800 - 435.900 CW/SSB
SO-50 22 May 11:41:29 11:43:26 12° 321° (NW) 11:45:22 436.795 FM
Oscar 11 22 May 11:47:16 11:51:35 63° 285° (WNW) 11:55:54 145.825 FM, Beacon 2401.500 USB
HO-68 22 May 12:30:26 12:36:37 33° 297° (WNW) 12:42:47 435.675 MHz FM
UOSAT-12 22 May 13:02:13 13:06:36 50° 306° (NW) 13:11:03 437.025 FM, 437.400 FM
MaSat-1 22 May 13:04:12 13:07:00 30° 253° (WSW) 13:09:25 437.345 MHz
JAS-2 22 May 13:06:00 13:10:46 20° 302° (WNW) 13:15:10 435.800 - 435.900 CW/SSB, 435.910 FM
Oscar 16 22 May 13:13:12 13:16:13 16° 62° (ENE) 13:19:13 437.025 USB, Beacon 2401.1428
PANSAT 22 May 13:15:40 13:17:51 15° 171° (S) 13:20:01 not established
OPAL 22 May 13:17:38 13:21:33 24° 297° (WNW) 13:25:27 ?
AO-27 22 May 13:21:43 13:24:13 14° 61° (ENE) 13:26:44 436.795 MHz FM
ITAMSAT 1 22 May 13:27:59 13:30:55 15° 62° (ENE) 13:33:52 435.822 SSB
Uribyol 2 22 May 14:06:59 14:11:42 37° 69° (ENE) 14:16:26 436.500 FM
Oscar 19 22 May 14:10:49 14:15:45 45° 71° (ENE) 14:20:42 437.125 CW, 437.150 USB
AO-Echo 22 May 14:20:30 14:23:04 15° 64° (ENE) 14:25:38 ?
Oscar 16 22 May 14:49:51 14:55:00 65° 258° (WSW) 15:00:12 437.025 USB, Beacon 2401.1428
PANSAT 22 May 14:55:04 14:57:33 16° 184° (S) 15:00:02 not established
AO-27 22 May 14:57:56 15:03:05 75° 257° (WSW) 15:08:18 436.795 MHz FM
ITAMSAT 1 22 May 15:04:44 15:09:51 66° 258° (WSW) 15:15:02 435.822 SSB
AO-7 22 May 15:21:29 15:24:36 13° 46° (NE) 15:27:44 29.400 - 29.500 MHz
Gurwin Techsat 1B 22 May 15:21:33 15:25:34 22° 65° (ENE) 15:29:36 435.225 FM
RS-15 22 May 15:23:39 15:30:56 19° 99° (E) 15:38:02 29.354 - 29.394 USB, Beacon 29.352 USB
Saudisat 1A 22 May 15:25:36 15:30:07 60° 56° (NE) 15:34:31 436.775 MHz
Sapphire 22 May 15:44:09 15:44:40 10° 38° (NE) 15:45:11 437.095 MHz 1200 baud AX-25 AFSK
Uribyol 2 22 May 15:47:01 15:51:14 25° 265° (W) 15:55:31 436.500 FM
Uosat F 22 May 15:48:57 15:53:44 48° 71° (ENE) 15:58:32 435.120 FM
Oscar 19 22 May 15:51:28 15:55:17 21° 267° (W) 15:59:08 437.125 CW, 437.150 USB
AO-Echo 22 May 15:56:34 16:01:24 60° 259° (W) 16:06:07 ?
TMSAT-1 22 May 16:38:12 16:43:29 76° 75° (ENE) 16:48:47 436.925 FM
PCSat 22 May 16:51:17 16:56:09 33° 53° (NE) 17:01:00 145.825 MHz
SO-50 22 May 16:52:35 16:53:38 11° 37° (NE) 16:54:40 436.795 FM
Gurwin Techsat 1B 22 May 17:00:10 17:05:14 45° 261° (W) 17:10:19 435.225 FM
Saudisat 1A 22 May 17:07:02 17:09:16 14° 252° (WSW) 17:11:29 436.775 MHz
AO-7 22 May 17:07:35 17:15:39 59° 66° (ENE) 17:23:45 29.400 - 29.500 MHz
Sapphire 22 May 17:23:58 17:29:19 56° 58° (ENE) 17:34:38 437.095 MHz 1200 baud AX-25 AFSK
Uosat F 22 May 17:29:25 17:32:47 18° 267° (W) 17:36:10 435.120 FM
RS-15 22 May 17:29:30 17:41:35 81° 118° (ESE) 17:53:11 29.354 - 29.394 USB, Beacon 29.352 USB
TMSAT-1 22 May 18:21:55 18:23:57 12° 271° (W) 18:26:00 436.925 FM
SO-50 22 May 18:30:35 18:35:07 70° 57° (ENE) 18:39:34 436.795 FM
PCSat 22 May 18:34:41 18:39:34 35° 250° (WSW) 18:44:25 145.825 MHz
JAS-1B 22 May 18:39:06 18:44:20 18° 58° (ENE) 18:49:08 435.800 - 435.900 CW/SSB
STRAND 1 22 May 18:52:04 18:55:06 16° 92° (E) 18:58:07 ?
AO-7 22 May 19:01:50 19:08:47 30° 264° (W) 19:15:49 29.400 - 29.500 MHz
Hamsat 22 May 19:08:35 19:12:02 25° 69° (ENE) 19:15:32 145.90 MHz
Sapphire 22 May 19:08:35 19:12:16 19° 255° (WSW) 19:15:57 437.095 MHz 1200 baud AX-25 AFSK
RS-15 22 May 19:44:49 19:55:17 34° 322° (NW) 20:05:26 29.354 - 29.394 USB, Beacon 29.352 USB
UOSAT-12 22 May 19:54:05 19:56:37 14° 41° (NE) 19:59:08 437.025 FM, 437.400 FM
SO-67 22 May 19:55:40 19:58:35 24° 71° (ENE) 20:01:32 435.3500 MHz FM
SO-50 22 May 20:13:45 20:15:06 11° 253° (WSW) 20:16:26 436.795 FM
JAS-1B 22 May 20:24:37 20:33:59 80° 74° (ENE) 20:41:58 435.800 - 435.900 CW/SSB
STRAND 1 22 May 20:29:36 20:34:39 58° 287° (WNW) 20:39:41 ?
Hamsat 22 May 20:44:35 20:48:02 25° 265° (W) 20:51:32 145.90 MHz
HO-68 22 May 21:10:11 21:16:21 33° 63° (ENE) 21:22:32 435.675 MHz FM
JAS-2 22 May 21:28:57 21:35:39 33° 64° (ENE) 21:42:24 435.800 - 435.900 CW/SSB, 435.910 FM
SO-67 22 May 21:29:32 21:32:01 18° 266° (W) 21:34:32 435.3500 MHz FM
UOSAT-12 22 May 21:32:45 21:37:22 82° 240° (WSW) 21:41:58 437.025 FM, 437.400 FM
RS-15 22 May 22:05:34 22:12:44 18° 356° (N) 22:19:44 29.354 - 29.394 USB, Beacon 29.352 USB
KITSAT 1 22 May 22:08:31 22:12:38 15° 100° (E) 22:16:45 435.175 FM
JAS-1B 22 May 22:18:12 22:24:53 22° 267° (W) 22:31:00 435.800 - 435.900 CW/SSB
Oscar 11 22 May 22:41:19 22:45:37 89° 77° (ENE) 22:49:59 145.825 FM, Beacon 2401.500 USB
OPAL 22 May 22:51:53 22:57:02 65° 71° (ENE) 23:02:09 ?
HO-68 22 May 22:57:00 23:03:47 47° 260° (W) 23:10:38 435.675 MHz FM
JAS-2 22 May 23:12:46 23:20:14 54° 261° (W) 23:27:55 435.800 - 435.900 CW/SSB, 435.910 FM
KITSAT 1 22 May 23:58:43 00:06:46 83° 117° (ESE) 00:14:55 435.175 FM
RS-15 23 May 00:21:17 00:30:37 29° 32° (NNE) 00:39:39 29.354 - 29.394 USB, Beacon 29.352 USB
OPAL 23 May 00:33:30 00:36:19 15° 267° (W) 00:39:07 ?
MaSat-1 23 May 01:50:57 01:57:22 36° 108° (ESE) 02:02:52 437.345 MHz
KITSAT 1 23 May 01:56:41 02:03:08 26° 319° (NW) 02:09:39 435.175 FM
Uribyol 2 23 May 02:22:19 02:25:03 14° 91° (E) 02:27:46 436.500 FM
Oscar 19 23 May 02:24:44 02:28:07 17° 92° (E) 02:31:28 437.125 CW, 437.150 USB
RS-15 23 May 02:33:38 02:44:49 85° 59° (ENE) 02:55:43 29.354 - 29.394 USB, Beacon 29.352 USB

Developed and maintained by Chris Peat, Heavens-Above GmbH. Please read the updated FAQ before sending e-mail. Imprint. DLR
